[[{"header":{"parameterUnit":"m.s-1","parameterCategory":1,"la1":30.2991,"la2":30.254,"lo1":-89.0895,"lo2":-89.0444,"dy":0.0017,"dx":0.0017,"nx":28,"ny":28,"refTime":"2025-07-31T21:00:00:Z","depth":0,"parameterNumber":2,"parameterNumberName":"U-component_of_WINDS"},"data":[0,0,0,0,0,0,0,0,0,0,0,0,0,0,0,0,0,0,0,0,0,0,0,0,0,0,0,0,0,0,0,0,0,0,0,0,0,0,0,0,0,0,0,0,0,0,0,0,0,0,0,0,0,0,0,0,0,0,1.011,1.0111,0,1.0225,1.0227,1.0228,1.0247,1.0246,1.0245,1.0244,1.0368,1.0372,1.0376,0,0,0,0,0,0,0,0,0,0,0,0,0,0.991,0.9914,1.011,1.0111,1.0113,1.0225,1.0227,1.0228,1.0247,1.0245,1.0244,1.0243,1.0366,1.0371,1.0376,0,0,0,0,0,0,0,0,0,0,0,0,0,1.0009,0.9915,1.011,1.0135,1.0139,1.0225,1.0227,1.0229,1.0247,1.0245,1.0244,1.0242,1.0364,1.0371,1.0377,1.0447,0,0,1.0396,1.0399,0,0,0,0,0,0,0,0,1.0003,1.0016,1.013,1.0134,1.0138,1.022,1.0202,1.0302,1.0247,1.0206,1.0244,1.0242,1.032,1.033,1.0355,1.0453,1.0458,1.0397,1.0401,1.0404,1.0405,0,0,0,0,0,0,0,0.9996,1.0011,1.0156,1.0132,1.0136,1.0143,1.0155,1.0221,1.0271,1.021,1.0211,1.0224,1.0322,1.0349,1.0358,1.046,1.0397,1.0403,1.0406,1.0409,1.0622,1.0624,0,0,0,0,0,0,0.9984,1.0005,1.0152,1.0159,1.0065,1.0148,1.0161,1.0195,1.027,1.028,1.0225,1.0225,1.0339,1.0351,1.0363,1.045,1.0404,1.041,1.0413,1.062,1.0622,1.0624,0,0,0,0,0,0,0.998,0.9997,1.0147,1.0083,1.0102,1.0153,1.0191,1.0198,1.0225,1.0282,1.0291,1.0244,1.0338,1.0354,1.0426,1.0454,1.0412,1.0418,1.0618,1.0621,1.0623,1.0625,0,0,0,0,0,0,0.9974,0.9995,1.0021,1.0083,1.0106,1.0207,1.0192,1.0202,1.0236,1.0236,1.0301,1.0311,1.0338,1.0416,1.0432,1.0463,1.0423,1.0616,1.0619,1.0622,1.0622,1.0627,1.0631,0,0,0,0,0,0.9967,1.0018,1.0022,1.004,1.0139,1.0208,1.0222,1.025,1.0238,1.0265,1.0301,1.0309,1.0449,1.0423,1.0441,1.0474,1.0614,1.0618,1.0622,1.062,1.0626,1.0631,0,0,0,0,0,0,0.9961,1.0027,1.0032,1.0105,1.0151,1.0211,1.0247,1.0256,1.0307,1.0305,1.0341,1.0355,1.0426,1.0457,1.0428,1.0546,1.0531,1.0538,1.0523,1.0529,1.0533,1.0525,1.0429,0,0,0,0,0,0.9967,1.0016,1.0073,1.0132,1.0154,1.0196,1.0228,1.0246,1.0295,1.0315,1.0357,1.0406,1.0461,1.0497,1.0551,1.0627,1.0642,1.0659,1.0663,1.0666,1.0673,1.0716,1.0724,1.0638,1.0638,1.0638,0,0,0.9983,1.0025,1.0054,1.0131,1.0169,1.022,1.0213,1.0268,1.0307,1.0324,1.0394,1.0426,1.0484,1.0558,1.0593,1.0587,1.07,1.0672,1.0674,1.0679,1.0721,1.0729,1.0736,1.0641,1.064,1.064,0,0,1.0037,1.0073,1.0126,1.0163,1.0219,1.0247,1.026,1.0319,1.0341,1.0411,1.0425,1.0473,1.0567,1.0608,1.064,1.0709,1.0718,1.0726,1.0749,1.0791,1.0798,1.0804,1.0829,1.0837,1.0732,1.0732,1.0732,0,1.0049,1.0125,1.0153,1.0207,1.0241,1.0257,1.0312,1.0347,1.0419,1.0443,1.0434,1.0552,1.0592,1.0676,1.0692,1.0719,1.0735,1.0719,1.0794,1.0801,1.0807,1.0831,1.084,1.0733,1.0733,1.0733,1.0733,0,1.0138,1.0191,1.0227,1.0294,1.0332,1.0386,1.0423,1.0459,1.0473,1.0502,1.0574,1.0623,1.0686,1.0708,1.0723,1.0794,1.0789,1.0787,1.0772,1.0815,1.0838,1.0848,1.0734,1.0733,1.0733,1.0733,0,0,1.0192,1.0272,1.0285,1.0315,1.0378,1.0421,1.0476,1.0536,1.0566,1.0616,1.0664,1.0742,1.0741,1.0778,1.0798,1.0835,1.0886,1.0829,1.0831,1.0838,1.0968,1.0969,1.0979,1.0892,1.0894,1.0896,1.0963,0,1.0253,1.035,1.0377,1.046,1.051,1.0525,1.0574,1.0619,1.0647,1.0695,1.0728,1.0783,1.0776,1.0799,1.0836,1.0872,1.0913,1.0868,1.0939,1.0941,1.0924,1.0991,1.0993,1.1054,1.0972,1.0974,1.0975,0,1.0338,1.0386,1.0474,1.053,1.0552,1.0595,1.0652,1.0697,1.0749,1.0767,1.0808,1.0825,1.0885,1.0866,1.095,1.0918,1.0949,1.0972,1.0975,1.0983,1.0961,1.1001,1.1074,1.1083,1.099,1.0988,1.0987,0,1.0369,1.0456,1.052,1.0545,1.0612,1.0642,1.0672,1.0721,1.0756,1.0807,1.083,1.0888,1.092,1.0965,1.0997,1.0981,1.1079,1.1062,1.1097,1.1096,1.1117,1.1115,1.1196,1.1136,1.1136,1.1136,1.1136,0,1.0435,1.0488,1.0534,1.0573,1.0634,1.0664,1.0723,1.0754,1.0798,1.0844,1.0862,1.0906,1.0946,1.0996,1.1022,1.1087,1.1102,1.1119,1.1126,1.1118,1.1116,1.1139,1.1136,1.1138,1.1138,1.1137,1.1137,0,1.0479,1.0512,1.0583,1.064,1.0656,1.0697,1.0747,1.0787,1.0816,1.0874,1.089,1.0936,1.0995,1.1032,1.1108,1.1125,1.1197,1.1202,1.1179,1.1182,1.1215,1.1211,1.1313,1.1328,1.1258,1.1259,1.1259,0,1.0519,1.056,1.0621,1.0653,1.0682,1.0733,1.0768,1.0799,1.0835,1.0896,1.0929,1.0989,1.1038,1.1132,1.1174,1.1232,1.1238,1.127,1.1247,1.1238,1.1239,1.1236,1.1241,1.1274,1.1275,1.1275,1.1275,0,1.0587,1.0601,1.065,1.0704,1.0744,1.0789,1.0834,1.086,1.0899,1.0939,1.0998,1.1036,1.1113,1.1172,1.1234,1.1266,1.1278,1.1282,1.1293,1.1286,1.1271,1.128,1.119,1.128,1.1279,1.1279,1.1279,1.1279,1.0631,1.0668,1.0716,1.077,1.0807,1.0848,1.0887,1.092,1.097,1.1033,1.1049,1.1112,1.1163,1.1246,1.128,1.1331,1.1326,1.1342,1.1347,1.135,1.1351,1.1262,1.1342,1.1342,1.1342,1.1342,1.1342,0,1.07,1.0731,1.078,1.0841,1.0884,1.0889,1.0939,1.0974,1.1028,1.1074,1.1122,1.1191,1.1248,1.1294,1.1353,1.1385,1.1392,1.14,1.1398,1.1405,1.1351,1.1336,1.1393,1.1393,1.1393,1.1393,1.1393,1.1393,1.0741,1.0803,1.0823,1.0905,1.0937,1.0996,1.1024,1.1063,1.1099,1.1175,1.1222,1.125,1.1296,1.1359,1.1413,1.1425,1.1446,1.1453,1.1466,1.1415,1.1409,1.1404,1.1389,1.1457,1.1457,1.1516,1.1517,1.1517]},{"header":{"parameterUnit":"m.s-1","parameterCategory":1,"la1":30.2991,"la2":30.254,"lo1":-89.0895,"lo2":-89.0444,"dy":0.0017,"dx":0.0017,"nx":28,"ny":28,"refTime":"2025-07-31T21:00:00:Z","depth":0,"parameterNumber":3,"parameterNumberName":"V-component_of_WINDS"},"data":[0,0,0,0,0,0,0,0,0,0,0,0,0,0,0,0,0,0,0,0,0,0,0,0,0,0,0,0,0,0,0,0,0,0,0,0,0,0,0,0,0,0,0,0,0,0,0,0,0,0,0,0,0,0,0,0,0,0,2.9621,2.9622,0,2.9679,2.9679,2.968,2.9726,2.9727,2.9727,2.9728,2.9782,2.9783,2.9784,0,0,0,0,0,0,0,0,0,0,0,0,0,2.9544,2.9546,2.9621,2.9622,2.9622,2.9679,2.9679,2.968,2.9726,2.9727,2.9728,2.9728,2.9782,2.9783,2.9784,0,0,0,0,0,0,0,0,0,0,0,0,0,2.9587,2.9546,2.9621,2.9652,2.9656,2.9678,2.9679,2.968,2.9726,2.9727,2.9728,2.9728,2.9781,2.9783,2.9784,2.9779,0,0,2.9789,2.979,0,0,0,0,0,0,0,0,2.9585,2.959,2.9647,2.965,2.9654,2.9696,2.9672,2.9713,2.9726,2.9699,2.9728,2.9729,2.9753,2.9757,2.9766,2.9782,2.9784,2.9789,2.979,2.9791,2.9791,0,0,0,0,0,0,0,2.9582,2.9588,2.9644,2.9648,2.9652,2.9661,2.9668,2.968,2.9721,2.9702,2.9705,2.9712,2.9755,2.9764,2.9767,2.9785,2.9789,2.979,2.9791,2.9792,2.9796,2.9795,0,0,0,0,0,0,2.9575,2.9585,2.9642,2.9645,2.9621,2.9662,2.967,2.9682,2.9721,2.9728,2.9711,2.9714,2.9761,2.9765,2.9769,2.9764,2.9791,2.9792,2.9793,2.9797,2.9796,2.9795,0,0,0,0,0,0,2.9573,2.9579,2.9639,2.9616,2.9625,2.9663,2.9676,2.9683,2.9692,2.9728,2.9735,2.9714,2.9762,2.9767,2.9776,2.9766,2.9793,2.9794,2.9798,2.9796,2.9795,2.9754,0,0,0,0,0,0,2.957,2.9578,2.9578,2.9616,2.9626,2.9647,2.9675,2.9683,2.9695,2.9699,2.9732,2.9739,2.9763,2.9773,2.9777,2.9769,2.9795,2.9799,2.9797,2.9796,2.9756,2.9751,2.9747,0,0,0,0,0,2.9568,2.9564,2.9578,2.9585,2.9627,2.9646,2.9652,2.9681,2.9694,2.9693,2.9716,2.9737,2.9767,2.9774,2.9779,2.9771,2.9799,2.9797,2.9796,2.9758,2.9752,2.9747,0,0,0,0,0,0,2.9523,2.957,2.9586,2.9595,2.9616,2.9654,2.9654,2.9674,2.9692,2.9695,2.9729,2.9736,2.974,2.9756,2.9763,2.9766,2.9786,2.9785,2.9755,2.975,2.9746,2.9741,2.9796,0,0,0,0,0,2.9515,2.9529,2.9568,2.9571,2.9581,2.9616,2.9625,2.9646,2.9669,2.9678,2.9702,2.9722,2.9736,2.9744,2.9759,2.9759,2.9765,2.9755,2.9751,2.9747,2.9745,2.9744,2.9739,2.9789,2.9789,2.9789,0,0,2.9497,2.9524,2.953,2.9563,2.9582,2.9593,2.9623,2.9634,2.9642,2.968,2.9689,2.9707,2.9731,2.9735,2.9738,2.9749,2.9733,2.9744,2.9741,2.9742,2.9741,2.9737,2.9732,2.9788,2.9788,2.9788,0,0,2.947,2.9493,2.9497,2.9516,2.9545,2.9567,2.9568,2.9603,2.9616,2.9626,2.9654,2.9663,2.9686,2.9702,2.9713,2.9689,2.9709,2.9693,2.9669,2.9667,2.9663,2.966,2.9649,2.9645,2.9691,2.9691,2.9691,0,2.9443,2.9464,2.9497,2.9506,2.9518,2.9553,2.9556,2.9572,2.9604,2.961,2.9623,2.9651,2.967,2.9677,2.9671,2.968,2.968,2.9689,2.9662,2.9658,2.9656,2.9646,2.9642,2.9689,2.9689,2.969,2.969,0,2.9428,2.9442,2.9441,2.9472,2.9484,2.949,2.9522,2.953,2.9549,2.9569,2.9578,2.9602,2.9621,2.9624,2.9643,2.9633,2.9638,2.9656,2.9676,2.9648,2.9639,2.9636,2.9686,2.9687,2.9687,2.9688,0,0,2.9376,2.9424,2.9423,2.9436,2.9469,2.9479,2.9485,2.9505,2.951,2.953,2.9535,2.9553,2.9568,2.9581,2.9601,2.96,2.9577,2.9617,2.9618,2.9607,2.9564,2.955,2.9545,2.959,2.9589,2.9589,2.9561,0,2.9353,2.9369,2.9397,2.9402,2.9413,2.9445,2.9451,2.947,2.9489,2.9499,2.9519,2.9531,2.9551,2.9559,2.9559,2.9579,2.9568,2.9582,2.9592,2.9592,2.9584,2.9541,2.9527,2.9499,2.9558,2.9558,2.9557,0,2.9329,2.9347,2.9354,2.9384,2.939,2.9394,2.9413,2.9423,2.9445,2.9459,2.9471,2.9494,2.95,2.9519,2.9526,2.9535,2.954,2.9551,2.955,2.9551,2.9572,2.9539,2.9492,2.9487,2.9553,2.9553,2.9554,0,2.9288,2.9314,2.9321,2.9331,2.9367,2.9369,2.9384,2.9407,2.9416,2.9432,2.9437,2.9454,2.9462,2.9473,2.9498,2.951,2.9501,2.9523,2.951,2.951,2.9506,2.9506,2.9457,2.9512,2.9512,2.9513,2.9513,0,2.9258,2.926,2.9302,2.9306,2.9308,2.934,2.9341,2.9358,2.9378,2.9384,2.9413,2.9417,2.9451,2.9459,2.9478,2.948,2.9484,2.9493,2.9498,2.9489,2.9488,2.9493,2.9495,2.9512,2.9512,2.9512,2.9512,0,2.9213,2.9241,2.925,2.9283,2.9291,2.9291,2.9319,2.9322,2.9342,2.9349,2.9352,2.9383,2.9394,2.942,2.9437,2.945,2.9446,2.9456,2.9438,2.9441,2.9426,2.9426,2.9378,2.9372,2.9432,2.9432,2.9431,0,2.9192,2.9194,2.9227,2.9233,2.9247,2.9258,2.9267,2.9297,2.9306,2.9329,2.9329,2.9342,2.9354,2.9369,2.9392,2.9404,2.9414,2.9396,2.9416,2.9407,2.9411,2.941,2.9409,2.9391,2.939,2.9389,2.9389,0,2.915,2.9164,2.9177,2.9194,2.9204,2.9219,2.9235,2.9238,2.9272,2.9279,2.9291,2.93,2.9317,2.9329,2.9345,2.9358,2.9378,2.9383,2.938,2.9371,2.936,2.9363,2.9425,2.9383,2.9384,2.9384,2.9385,2.9385,2.9115,2.9117,2.9141,2.9153,2.9169,2.9182,2.9187,2.9207,2.9217,2.9234,2.9251,2.926,2.9279,2.9303,2.9315,2.9321,2.9331,2.9328,2.9327,2.9325,2.932,2.936,2.9324,2.9324,2.9324,2.9324,2.9325,0,2.9073,2.9089,2.9101,2.9123,2.9132,2.9151,2.9169,2.9175,2.9183,2.92,2.9211,2.9222,2.9233,2.9256,2.9268,2.9268,2.9278,2.927,2.927,2.9272,2.9311,2.9311,2.9263,2.9263,2.9263,2.9263,2.9263,2.9263,2.9053,2.9057,2.9073,2.9084,2.91,2.9109,2.9118,2.913,2.9143,2.9155,2.9164,2.9179,2.9198,2.9211,2.9221,2.9228,2.923,2.9219,2.9228,2.9264,2.927,2.9275,2.9275,2.922,2.922,2.9188,2.9188,2.9188]}]]